• In Hungary
  • List of Countries
  • For 7 days
  • Water Temperature
  • Satellite Maps
  • Weather Map
  • News
  • Weather Widgets
  • user-avatar
    Login

    Hourly Weather Kranston

    Today, 20 October, Friday

    Time Temperature Precipitation Wind Pressure Humidity
    00:00 +15°C° 0 mm 4 mps 761 mmHg 66%
    01:00 +16°C° 0 mm 3 mps 761 mmHg 67%
    02:00 +14°C° 0 mm 3 mps 761 mmHg 69%
    03:00 +14°C° 0 mm 3 mps 761 mmHg 71%
    04:00 +13°C° 0 mm 3 mps 761 mmHg 74%
    05:00 +13°C° 0 mm 4 mps 761 mmHg 69%
    06:00 +13°C° 0 mm 4 mps 762 mmHg 65%
    07:00 +12°C° 0 mm 4 mps 762 mmHg 60%
    08:00 +14°C° 0 mm 4 mps 762 mmHg 52%
    09:00 +17°C° 0 mm 4 mps 762 mmHg 43%
    10:00 +18°C° 0 mm 4 mps 763 mmHg 35%
    11:00 +19°C° 0 mm 4 mps 762 mmHg 33%
    12:00 +20°C° 0 mm 4 mps 762 mmHg 32%
    13:00 +21°C° 0 mm 3 mps 762 mmHg 31%
    14:00 +21°C° 0 mm 3 mps 762 mmHg 33%
    15:00 +20°C° 0 mm 3 mps 762 mmHg 36%
    16:00 +20°C° 0 mm 2 mps 762 mmHg 39%
    17:00 +18°C° 0 mm 2 mps 762 mmHg 43%
    18:00 +17°C° 0 mm 2 mps 763 mmHg 47%
    19:00 +15°C° 0 mm 2 mps 764 mmHg 51%
    20:00 +15°C° 0 mm 2 mps 764 mmHg 52%
    21:00 +14°C° 0 mm 2 mps 764 mmHg 53%
    22:00 +14°C° 0 mm 2 mps 765 mmHg 54%
    23:00 +13°C° 0 mm 2 mps 765 mmHg 55%

    Tomorrow, 21 October, Saturday

    Time Temperature Precipitation Wind Pressure Humidity
    00:00 +13°C° 0 mm 2 mps 765 mmHg 55%
    01:00 +13°C° 0 mm 2 mps 766 mmHg 55%
    02:00 +12°C° 0 mm 1 mps 766 mmHg 55%
    03:00 +12°C° 0 mm 1 mps 766 mmHg 55%
    04:00 +12°C° 0 mm 1 mps 766 mmHg 55%
    05:00 +12°C° 0 mm 1 mps 767 mmHg 54%
    06:00 +13°C° 0 mm 1 mps 767 mmHg 53%
    07:00 +13°C° 0 mm 1 mps 767 mmHg 52%
    08:00 +16°C° 0 mm 1 mps 768 mmHg 46%
    09:00 +20°C° 0 mm 1 mps 768 mmHg 39%
    10:00 +23°C° 0 mm 2 mps 768 mmHg 32%
    11:00 +24°C° 0 mm 2 mps 768 mmHg 31%
    12:00 +25°C° 0 mm 3 mps 767 mmHg 29%
    13:00 +26°C° 0 mm 3 mps 767 mmHg 28%
    14:00 +25°C° 0 mm 3 mps 767 mmHg 32%
    15:00 +24°C° 0 mm 3 mps 767 mmHg 36%
    16:00 +23°C° 0 mm 2 mps 767 mmHg 40%
    17:00 +20°C° 0 mm 2 mps 768 mmHg 45%
    18:00 +18°C° 0 mm 2 mps 768 mmHg 50%
    19:00 +17°C° 0 mm 2 mps 769 mmHg 55%
    20:00 +16°C° 0 mm 2 mps 769 mmHg 56%
    21:00 +16°C° 0 mm 2 mps 769 mmHg 57%
    22:00 +15°C° 0 mm 2 mps 769 mmHg 57%
    23:00 +15°C° 0 mm 2 mps 769 mmHg 58%

    Day after tomorrow, 22 October, Sunday

    Time Temperature Precipitation Wind Pressure Humidity
    00:00 +15°C° 0 mm 2 mps 769 mmHg 59%
    01:00 +14°C° 0 mm 1 mps 769 mmHg 60%
    02:00 +14°C° 0 mm 1 mps 769 mmHg 61%
    03:00 +14°C° 0 mm 1 mps 769 mmHg 62%
    04:00 +14°C° 0 mm 1 mps 769 mmHg 64%
    05:00 +14°C° 0 mm 1 mps 770 mmHg 64%
    06:00 +14°C° 0 mm 1 mps 770 mmHg 65%
    07:00 +14°C° 0 mm 1 mps 770 mmHg 65%
    08:00 +18°C° 0 mm 1 mps 770 mmHg 59%
    09:00 +19°C° 0 mm 2 mps 770 mmHg 53%
    10:00 +21°C° 0 mm 2 mps 770 mmHg 47%
    11:00 +23°C° 0 mm 2 mps 770 mmHg 45%
    12:00 +24°C° 0 mm 3 mps 770 mmHg 43%
    13:00 +25°C° 0 mm 3 mps 769 mmHg 40%
    14:00 +24°C° 0 mm 3 mps 769 mmHg 43%
    15:00 +22°C° 0 mm 3 mps 769 mmHg 47%
    16:00 +21°C° 0 mm 3 mps 769 mmHg 50%
    17:00 +20°C° 0 mm 3 mps 769 mmHg 59%
    18:00 +18°C° 0 mm 3 mps 769 mmHg 68%
    19:00 +16°C° 0 mm 3 mps 769 mmHg 77%
    20:00 +16°C° 0 mm 2 mps 769 mmHg 81%
    21:00 +16°C° 0 mm 2 mps 769 mmHg 85%
    22:00 +16°C° 0 mm 2 mps 769 mmHg 88%
    23:00 +16°C° 0 mm 2 mps 769 mmHg 90%

    23 October, Monday

    Time Temperature Precipitation Wind Pressure Humidity
    00:00 +16°C° 0 mm 2 mps 769 mmHg 91%
    01:00 +16°C° 0 mm 2 mps 768 mmHg 93%
    02:00 +16°C° 0 mm 3 mps 768 mmHg 94%
    03:00 +16°C° 0 mm 3 mps 768 mmHg 94%
    04:00 +16°C° 0 mm 3 mps 768 mmHg 95%
    05:00 +17°C° 0 mm 3 mps 768 mmHg 94%
    06:00 +17°C° 0 mm 3 mps 768 mmHg 94%
    07:00 +17°C° 0 mm 3 mps 767 mmHg 93%
    08:00 +19°C° 0 mm 3 mps 767 mmHg 83%
    09:00 +21°C° 0 mm 4 mps 767 mmHg 72%
    10:00 +23°C° 0 mm 5 mps 767 mmHg 62%
    11:00 +23°C° 0 mm 5 mps 766 mmHg 60%
    12:00 +25°C° 0 mm 5 mps 765 mmHg 58%
    13:00 +24°C° 0 mm 6 mps 765 mmHg 56%
    14:00 +23°C° 0 mm 5 mps 764 mmHg 61%
    15:00 +22°C° 0 mm 5 mps 764 mmHg 65%
    16:00 +22°C° 0 mm 5 mps 764 mmHg 70%
    17:00 +21°C° 0 mm 5 mps 764 mmHg 75%
    18:00 +20°C° 0 mm 4 mps 764 mmHg 81%
    19:00 +19°C° 0 mm 4 mps 764 mmHg 87%
    20:00 +19°C° 0 mm 4 mps 763 mmHg 88%
    21:00 +19°C° 0 mm 4 mps 763 mmHg 88%
    22:00 +19°C° 0 mm 4 mps 763 mmHg 89%
    23:00 +19°C° 0 mm 4 mps 762 mmHg 90%

    24 October, Tuesday

    Time Temperature Precipitation Wind Pressure Humidity
    00:00 +19°C° 0 mm 4 mps 762 mmHg 91%
    01:00 +19°C° 0 mm 4 mps 761 mmHg 92%
    02:00 +19°C° 0.1 mm 4 mps 761 mmHg 93%
    03:00 +19°C° 0.1 mm 4 mps 761 mmHg 94%
    04:00 +19°C° 0.1 mm 4 mps 760 mmHg 94%
    05:00 +19°C° 0.1 mm 4 mps 760 mmHg 93%
    06:00 +19°C° 0.1 mm 4 mps 760 mmHg 91%
    07:00 +20°C° 0.1 mm 4 mps 759 mmHg 90%
    08:00 +21°C° 0.2 mm 5 mps 759 mmHg 85%
    09:00 +21°C° 0.2 mm 6 mps 759 mmHg 81%
    10:00 +22°C° 0.2 mm 6 mps 758 mmHg 76%
    11:00 +23°C° 0.2 mm 7 mps 757 mmHg 75%
    12:00 +23°C° 0.2 mm 7 mps 757 mmHg 75%
    13:00 +23°C° 0.2 mm 8 mps 756 mmHg 74%
    14:00 +23°C° 0.4 mm 8 mps 755 mmHg 78%
    15:00 +22°C° 0.4 mm 7 mps 755 mmHg 81%
    16:00 +21°C° 0.4 mm 7 mps 754 mmHg 85%
    17:00 +21°C° 0.3 mm 7 mps 754 mmHg 86%
    18:00 +21°C° 0.3 mm 7 mps 754 mmHg 87%
    19:00 +21°C° 0.3 mm 7 mps 754 mmHg 87%
    20:00 +21°C° 0.5 mm 8 mps 753 mmHg 88%
    21:00 +21°C° 0.5 mm 8 mps 753 mmHg 88%
    22:00 +21°C° 0.5 mm 8 mps 752 mmHg 88%
    23:00 +21°C° 1.2 mm 8 mps 751 mmHg 88%

    25 October, Wednesday

    Time Temperature Precipitation Wind Pressure Humidity
    00:00 +21°C° 1.2 mm 9 mps 750 mmHg 88%
    01:00 +21°C° 1.2 mm 9 mps 750 mmHg 88%
    02:00 +21°C° 2.4 mm 9 mps 749 mmHg 89%
    03:00 +21°C° 2.4 mm 8 mps 749 mmHg 89%
    04:00 +21°C° 2.4 mm 8 mps 748 mmHg 90%
    05:00 +21°C° 0.9 mm 8 mps 748 mmHg 89%
    06:00 +21°C° 0.9 mm 8 mps 748 mmHg 88%
    07:00 +21°C° 0.9 mm 8 mps 747 mmHg 87%
    08:00 +21°C° 1.7 mm 8 mps 747 mmHg 88%
    09:00 +21°C° 1.7 mm 7 mps 747 mmHg 89%
    10:00 +21°C° 1.7 mm 7 mps 746 mmHg 90%
    11:00 +21°C° 1.4 mm 7 mps 746 mmHg 89%
    12:00 +20°C° 1.4 mm 6 mps 746 mmHg 89%
    13:00 +19°C° 1.4 mm 6 mps 746 mmHg 88%
    14:00 +19°C° 0.8 mm 5 mps 746 mmHg 86%
    15:00 +17°C° 0.8 mm 5 mps 747 mmHg 84%
    16:00 +18°C° 0.8 mm 4 mps 747 mmHg 82%
    17:00 +17°C° 0.2 mm 4 mps 748 mmHg 83%
    18:00 +17°C° 0.2 mm 3 mps 749 mmHg 85%
    19:00 +16°C° 0.2 mm 3 mps 749 mmHg 86%
    20:00 +14°C° 0 mm 3 mps 749 mmHg 87%
    21:00 +15°C° 0 mm 2 mps 750 mmHg 87%
    22:00 +15°C° 0 mm 2 mps 750 mmHg 88%
    23:00 +14°C° 0 mm 2 mps 750 mmHg 87%
    Show more